Location: *
(40.7765°S, 106.5327°E)
Time: 15:23:31
(UTC+00:00)

ATLAS 2AS CENTAUR R/B - Pass Details

Date: 26 May 2022
Orbit: 973 x 1238 km, 63.7° (Epoch: 28 June)

Event Time Altitude Azimuth Distance (km) Brightness Sun altitude
Rises 11:06:29 0° 217° (SW) 3,907 6.0 -16.5°
Reaches altitude 10° 11:09:06 10° 219° (SW) 2,982 5.4 -17.0°
Maximum altitude 11:16:10 67° 299° (WNW) 1,253 3.2 -18.3°
Drops below altitude 10° 11:23:37 10° 20° (NNE) 3,135 5.1 -19.6°
Sets 11:26:25 0° 22° (NNE) 4,118 5.7 -20.2°
